{"data":{"norad_id":58928,"intl_designator":"2024-025A","name":"PACE","alt_names":[],"object_type":"PAYLOAD","status":"ACTIVE","operator":null,"country":"US","launch_date":"2024-02-08","launch_site_code":"AFETR","launch_vehicle":null,"mission":null,"orbit_class":"UNKNOWN","rcs_meters":null,"size_class":null,"mass_kg":null,"dimensions":null,"purposes":[],"wikipedia_slug":null,"has_3d_model":false,"image_url":null,"decayed_at":null,"tle_current":{"epoch":"2026-05-25T01:12:36.466848Z","epoch_age_seconds":81177,"freshness":"FRESH","line1":"1 58928U 24025A   26145.05042207  .00000340  00000+0  71438-4 0  9996","line2":"2 58928  98.0952  76.7101 0001871  12.8741 347.2510 14.65520783122546","mean_motion":14.65520783,"eccentricity":0.0001871,"inclination_deg":98.0952,"raan_deg":76.7101,"arg_perigee_deg":12.8741,"mean_anomaly_deg":347.251,"bstar":7.1438e-5,"rev_number":12254,"period_min":98.258586074245,"perigee_km":674.08414876937,"apogee_km":676.72358376153,"semimajor_km":7053.5408662655,"source":"CELESTRAK","updated_at":"2026-05-25T13:38:01.080118Z"}}}